When you browse on this site, cookies collect data to enhance your experience and personalize the content and advertising you see.
Visit our Privacy Policy to learn more. By continuing to use the site, you agree to this use of cookies and data.
  • In France
  • List of Countries
  • For 7 days
  • Water Temperature
  • Weather Map
  • Weather Widgets
  • user-avatar
    Login

    Hourly Weather Gloucester

    Today, 21 August, Wednesday

    Time Temperature Precipitation Wind Pressure Humidity
    00:00 +12°C° 0 mm 3 mps 763 mmHg 95%
    01:00 +12°C° 0 mm 3 mps 763 mmHg 95%
    02:00 +12°C° 0 mm 2 mps 763 mmHg 96%
    03:00 +12°C° 0 mm 2 mps 763 mmHg 96%
    04:00 +12°C° 0 mm 2 mps 763 mmHg 96%
    05:00 +13°C° 0 mm 2 mps 763 mmHg 96%
    06:00 +13°C° 0 mm 2 mps 763 mmHg 96%
    07:00 +13°C° 0 mm 3 mps 763 mmHg 90%
    08:00 +16°C° 0 mm 3 mps 763 mmHg 85%
    09:00 +17°C° 0 mm 4 mps 763 mmHg 80%
    10:00 +18°C° 0 mm 4 mps 763 mmHg 75%
    11:00 +19°C° 0 mm 5 mps 763 mmHg 70%
    12:00 +20°C° 0 mm 5 mps 763 mmHg 65%
    13:00 +20°C° 0 mm 5 mps 762 mmHg 65%
    14:00 +20°C° 0 mm 5 mps 762 mmHg 64%
    15:00 +20°C° 0 mm 5 mps 762 mmHg 63%
    16:00 +19°C° 0.1 mm 5 mps 762 mmHg 68%
    17:00 +17°C° 0.1 mm 5 mps 762 mmHg 73%
    18:00 +17°C° 0.1 mm 4 mps 761 mmHg 78%
    19:00 +15°C° 0 mm 4 mps 761 mmHg 81%
    20:00 +14°C° 0 mm 3 mps 762 mmHg 84%
    21:00 +13°C° 0 mm 3 mps 762 mmHg 86%
    22:00 +13°C° 0 mm 3 mps 762 mmHg 87%
    23:00 +13°C° 0 mm 4 mps 761 mmHg 88%

    Tomorrow, 22 August, Thursday

    Time Temperature Precipitation Wind Pressure Humidity
    00:00 +13°C° 0 mm 4 mps 761 mmHg 89%
    01:00 +12°C° 0 mm 4 mps 761 mmHg 90%
    02:00 +12°C° 0 mm 4 mps 761 mmHg 92%
    03:00 +12°C° 0 mm 4 mps 761 mmHg 93%
    04:00 +12°C° 0 mm 4 mps 761 mmHg 93%
    05:00 +12°C° 0 mm 5 mps 761 mmHg 92%
    06:00 +13°C° 0 mm 5 mps 761 mmHg 91%
    07:00 +14°C° 0 mm 5 mps 761 mmHg 88%
    08:00 +16°C° 0 mm 6 mps 761 mmHg 84%
    09:00 +17°C° 0 mm 6 mps 762 mmHg 80%
    10:00 +19°C° 0.1 mm 6 mps 761 mmHg 78%
    11:00 +19°C° 0.1 mm 6 mps 761 mmHg 76%
    12:00 +20°C° 0.1 mm 6 mps 761 mmHg 75%
    13:00 +20°C° 0.1 mm 6 mps 761 mmHg 73%
    14:00 +21°C° 0.1 mm 6 mps 761 mmHg 72%
    15:00 +21°C° 0.1 mm 6 mps 761 mmHg 70%
    16:00 +21°C° 0 mm 5 mps 761 mmHg 73%
    17:00 +20°C° 0 mm 4 mps 761 mmHg 76%
    18:00 +19°C° 0 mm 4 mps 761 mmHg 78%
    19:00 +18°C° 0 mm 3 mps 761 mmHg 83%
    20:00 +17°C° 0 mm 3 mps 762 mmHg 88%
    21:00 +14°C° 0 mm 3 mps 762 mmHg 93%
    22:00 +15°C° 0 mm 2 mps 762 mmHg 94%
    23:00 +15°C° 0 mm 2 mps 762 mmHg 94%

    Day after tomorrow, 23 August, Friday

    Time Temperature Precipitation Wind Pressure Humidity
    00:00 +15°C° 0 mm 2 mps 762 mmHg 95%
    01:00 +15°C° 0 mm 2 mps 762 mmHg 95%
    02:00 +14°C° 0 mm 2 mps 762 mmHg 95%
    03:00 +14°C° 0 mm 2 mps 762 mmHg 95%
    04:00 +14°C° 0 mm 2 mps 762 mmHg 95%
    05:00 +14°C° 0 mm 2 mps 762 mmHg 95%
    06:00 +15°C° 0 mm 2 mps 762 mmHg 95%
    07:00 +16°C° 0 mm 2 mps 762 mmHg 89%
    08:00 +18°C° 0 mm 2 mps 762 mmHg 84%
    09:00 +19°C° 0 mm 2 mps 762 mmHg 78%
    10:00 +20°C° 0 mm 2 mps 762 mmHg 75%
    11:00 +21°C° 0 mm 2 mps 762 mmHg 71%
    12:00 +23°C° 0 mm 1 mps 762 mmHg 68%
    13:00 +23°C° 0 mm 1 mps 762 mmHg 66%
    14:00 +23°C° 0 mm 1 mps 761 mmHg 64%
    15:00 +24°C° 0 mm 1 mps 761 mmHg 62%
    16:00 +24°C° 0 mm 1 mps 761 mmHg 65%
    17:00 +21°C° 0 mm 0 mps 761 mmHg 67%
    18:00 +21°C° 0 mm 0 mps 761 mmHg 70%
    19:00 +20°C° 0 mm 0 mps 761 mmHg 74%
    20:00 +20°C° 0 mm 1 mps 761 mmHg 78%
    21:00 +19°C° 0 mm 1 mps 761 mmHg 82%
    22:00 +18°C° 0 mm 1 mps 761 mmHg 85%
    23:00 +18°C° 0 mm 1 mps 761 mmHg 87%

    24 August, Saturday

    Time Temperature Precipitation Wind Pressure Humidity
    00:00 +15°C° 0 mm 0 mps 760 mmHg 89%
    01:00 +15°C° 0 mm 0 mps 760 mmHg 89%
    02:00 +16°C° 0 mm 1 mps 760 mmHg 90%
    03:00 +15°C° 0 mm 1 mps 759 mmHg 91%
    04:00 +15°C° 0 mm 1 mps 759 mmHg 91%
    05:00 +16°C° 0 mm 1 mps 759 mmHg 91%
    06:00 +16°C° 0 mm 1 mps 759 mmHg 90%
    07:00 +18°C° 0 mm 1 mps 759 mmHg 83%
    08:00 +20°C° 0 mm 1 mps 759 mmHg 75%
    09:00 +20°C° 0 mm 2 mps 760 mmHg 67%
    10:00 +23°C° 0 mm 2 mps 759 mmHg 61%
    11:00 +24°C° 0 mm 2 mps 759 mmHg 56%
    12:00 +25°C° 0 mm 2 mps 759 mmHg 50%
    13:00 +26°C° 0 mm 2 mps 759 mmHg 48%
    14:00 +26°C° 0 mm 2 mps 759 mmHg 46%
    15:00 +27°C° 0 mm 2 mps 758 mmHg 45%
    16:00 +26°C° 0 mm 1 mps 758 mmHg 50%
    17:00 +25°C° 0 mm 1 mps 758 mmHg 54%
    18:00 +22°C° 0 mm 0 mps 758 mmHg 59%
    19:00 +23°C° 0 mm 1 mps 758 mmHg 61%
    20:00 +22°C° 0 mm 1 mps 758 mmHg 62%
    21:00 +21°C° 0 mm 1 mps 759 mmHg 64%
    22:00 +20°C° 0 mm 1 mps 759 mmHg 67%
    23:00 +19°C° 0 mm 1 mps 759 mmHg 71%

    25 August, Sunday

    Time Temperature Precipitation Wind Pressure Humidity
    00:00 +19°C° 0 mm 1 mps 759 mmHg 74%
    01:00 +18°C° 0 mm 1 mps 758 mmHg 77%
    02:00 +18°C° 0 mm 1 mps 758 mmHg 80%
    03:00 +16°C° 0 mm 1 mps 758 mmHg 83%
    04:00 +16°C° 0 mm 1 mps 758 mmHg 83%
    05:00 +16°C° 0 mm 1 mps 758 mmHg 84%
    06:00 +16°C° 0 mm 1 mps 758 mmHg 84%
    07:00 +19°C° 0 mm 1 mps 759 mmHg 78%
    08:00 +21°C° 0 mm 1 mps 759 mmHg 72%
    09:00 +23°C° 0 mm 1 mps 759 mmHg 66%
    10:00 +24°C° 0 mm 1 mps 759 mmHg 61%
    11:00 +26°C° 0 mm 1 mps 759 mmHg 57%
    12:00 +27°C° 0 mm 1 mps 759 mmHg 52%
    13:00 +28°C° 0 mm 1 mps 759 mmHg 50%
    14:00 +28°C° 0 mm 1 mps 759 mmHg 47%
    15:00 +29°C° 0 mm 1 mps 759 mmHg 45%
    16:00 +28°C° 0 mm 1 mps 759 mmHg 50%
    17:00 +25°C° 0 mm 0 mps 759 mmHg 54%
    18:00 +24°C° 0 mm 0 mps 759 mmHg 59%
    19:00 +23°C° 0 mm 0 mps 759 mmHg 61%
    20:00 +21°C° 0 mm 0 mps 760 mmHg 64%
    21:00 +20°C° 0 mm 0 mps 760 mmHg 67%
    22:00 +19°C° 0 mm 0 mps 760 mmHg 69%
    23:00 +19°C° 0 mm 0 mps 760 mmHg 71%

    26 August, Monday

    Time Temperature Precipitation Wind Pressure Humidity
    00:00 +18°C° 0 mm 0 mps 760 mmHg 73%
    01:00 +18°C° 0 mm 0 mps 760 mmHg 75%
    02:00 +17°C° 0 mm 0 mps 760 mmHg 76%
    03:00 +17°C° 0 mm 0 mps 760 mmHg 78%
    04:00 +17°C° 0 mm 0 mps 760 mmHg 78%
    05:00 +17°C° 0 mm 0 mps 760 mmHg 79%
    06:00 +17°C° 0 mm 0 mps 761 mmHg 79%
    07:00 +19°C° 0 mm 0 mps 761 mmHg 73%
    08:00 +21°C° 0 mm 0 mps 761 mmHg 67%
    09:00 +25°C° 0 mm 1 mps 761 mmHg 61%
    10:00 +26°C° 0 mm 1 mps 761 mmHg 56%
    11:00 +27°C° 0 mm 2 mps 761 mmHg 51%
    12:00 +29°C° 0 mm 2 mps 761 mmHg 47%
    13:00 +29°C° 0 mm 2 mps 761 mmHg 46%
    14:00 +29°C° 0 mm 2 mps 761 mmHg 45%
    15:00 +30°C° 0 mm 2 mps 761 mmHg 45%
    16:00 +29°C° 0 mm 2 mps 761 mmHg 50%
    17:00 +28°C° 0 mm 1 mps 761 mmHg 55%
    18:00 +27°C° 0 mm 1 mps 761 mmHg 61%
    19:00 +25°C° 0 mm 1 mps 761 mmHg 64%
    20:00 +24°C° 0 mm 1 mps 761 mmHg 68%
    21:00 +22°C° 0 mm 1 mps 761 mmHg 72%
    22:00 +21°C° 0 mm 1 mps 761 mmHg 73%
    23:00 +21°C° 0 mm 1 mps 761 mmHg 73%
    Show more